Change the Weather History Date:

Saturday, March 31, 2012

  Actual Average Record
Temperature  
Mean Temperature 60 °F -  
Max Temperature 66 °F 70 °F 98 °F (1999)
Min Temperature 53 °F 53 °F 50 °F (2002)
Degree Days  
Heating Degree Days 6    
Growing Degree Days 10 (Base 50)    
Moisture  
Dew Point 52 °F    
Average Humidity 74    
Maximum Humidity 94    
Minimum Humidity 49    
Precipitation  
Precipitation 0.00 in - - ()
Sea Level Pressure  
Sea Level Pressure 30.22 in    
Wind  
Wind Speed 7 mph ()    
Max Wind Speed 13 mph    
Max Gust Speed -    
Visibility 8.3 miles    
Events      
Averages and records for this station are not official NWS values.
T = Trace of Precipitation, MM = Missing Value Source: Averaged Metar Reports

Daily Weather History Graph

Daily Weather History Graph

Search for Another Location

Airport or City:

Trip Planner

Search our weather history database for the weather conditions in past years. The results will help you decide how hot, cold, wet, or windy it might be!

Date:

Astronomy

Mar. 31, 2012 Rise Set
Actual Time 6:42 AM SAST 6:26 PM SAST
Civil Twilight 6:17 AM SAST 6:51 PM SAST
Nautical Twilight 5:48 AM SAST 7:20 PM SAST
Astronomical Twilight 5:19 AM SAST 7:49 PM SAST
Moon 2:07 PM SAST (3/31) No Moon Set
Length of Visible Light 12h 34m
Length of Day
11h 44m
First Quarter, 56% of the Moon is Illuminated
Mar 31
First Quarter
Apr 6
Full
Apr 13
Last Quarter
Apr 21
New
Apr 29
First Quarter

Hourly Weather History & Observations

Time (SAST) Temp. Dew Point Humidity Pressure Visibility Wind Dir Wind Speed Gust Speed Precip Events Conditions
8:00 AM 57 °F 54 °F 84% 30.23 in 12 mi WNW 8.1 mph - -   Partly Cloudy
8:00 AM 57.2 °F 53.6 °F 88% 30.21 in 6.2 mi WNW 8.1 mph - N/A   Partly Cloudy
8:32 AM 60.8 °F 53.6 °F 77% 30.21 in 6.2 mi WNW 10.4 mph - N/A   Scattered Clouds
9:00 AM 60.8 °F 53.6 °F 77% 30.21 in 6.2 mi West 11.5 mph - N/A   Mostly Cloudy
10:00 AM 62.6 °F 51.8 °F 68% 30.21 in 6.2 mi WNW 9.2 mph - N/A   Scattered Clouds
11:00 AM 64 °F 49 °F 49% 30.22 in 12 mi WNW 9.2 mph - -   Mostly Cloudy
11:00 AM 64.4 °F 50.0 °F 59% 30.21 in 6.2 mi West 9.2 mph - N/A   Mostly Cloudy
12:00 PM 64.4 °F 46.4 °F 52% 30.21 in 6.2 mi West 9.2 mph - N/A   Mostly Cloudy
1:00 PM 64.4 °F 50.0 °F 59% 30.18 in 6.2 mi South 11.5 mph - N/A   Mostly Cloudy
2:00 PM 64 °F 54 °F 60% 30.21 in 12 mi South 11.5 mph - -   Mostly Cloudy
2:00 PM 64.4 °F 55.4 °F 73% 30.18 in 6.2 mi South 12.7 mph - N/A   Mostly Cloudy
3:00 PM 64.4 °F 53.6 °F 68% 30.18 in 6.2 mi South 10.4 mph - N/A   Scattered Clouds
4:00 PM 62.6 °F 53.6 °F 72% 30.18 in 6.2 mi South 9.2 mph - N/A   Scattered Clouds
5:00 PM 62 °F 52 °F 62% 30.23 in 12 mi SSE 6.9 mph - -   Mostly Cloudy
5:00 PM 62.6 °F 51.8 °F 68% 30.21 in 6.2 mi SSE 6.9 mph - N/A   Mostly Cloudy
6:00 PM 60.8 °F 53.6 °F 77% 30.21 in 6.2 mi SSE 4.6 mph - N/A   Scattered Clouds
7:00 PM 59.0 °F 53.6 °F 82% 30.24 in 6.2 mi East 2.3 mph - N/A   Scattered Clouds
8:00 PM 57 °F 53 °F 82% 30.25 in 12 mi NNE 3.5 mph - -   Mostly Cloudy
8:00 PM 57.2 °F 53.6 °F 88% 30.24 in 6.2 mi NNE 3.5 mph - N/A   Scattered Clouds
9:00 PM 57.2 °F 53.6 °F 88% 30.24 in - NNE 3.5 mph - N/A   Clear
10:00 PM 55.4 °F 51.8 °F 88% 30.24 in - NNW 3.5 mph - N/A   Clear
11:00 PM 53 °F 51 °F 92% 30.26 in 19 mi North 2.3 mph - -  
11:00 PM 53.6 °F 51.8 °F 94% 30.24 in - NNW 2.3 mph - N/A   Clear